RH
100 100 100 100 97 99 100 100 100 100 100 100 100 99 96 100 100 100 96 90 84 86 84 77 75 70 61 54 48 44 50 63 61 67 73 74 64 62 51 59 56 53 58
100 100 100 100 100 100 100 100 100 100 100 100 100 100 100 100 100 98 93 94 89 87 73 67 62 56 59 51 50 56 63 76 75 87 81 88 81 76 66 70 58 58 52
100 100 100 100 100 100 100 100 100 100 100 100 100 100 100 100 100 98 90 83 74 65 63 59 58 56 56 58 62 62 58 70 71 88 74 79 79 66 55 50 53 57 53
99 100 100 100 100 100 100 100 100 100 100 100 100 100 100 100 100 98 97 97 91 76 62 60 62 64 62 68 63 60 59 62 71 82 91 96 92 95 74 70 71 67 67
96 100 100 100 100 100 100 100 100 100 100 100 100 100 100 100 100 100 100 100 94 84 76 78 80 73 73 82 71 74 70 89 85 83 87 92 100 100 100 97 95 88 80
94 100 100 100 100 100 100 100 100 100 100 100 100 100 100 100 100 100 100 100 93 85 82 85 89 95 91 82 80 86 66 64 58 63 73 88 89 100 100 100 100 100 100
97 100 100 100 100 100 100 100 93 96 100 100 100 100 100 100 100 100 100 100 99 96 95 88 88 90 94 97 97 95 99 95 86 80 99 100 100 92 99 100 100 100 100
100 100 100 96 98 98 100 100 100 99 100 100 100 100 99 100 100 100 100 100 100 100 100 99 90 89 88 93 99 100 100 98 94 97 99 99 100 100 100 99 100 100 100
100 100 100 100 100 100 100 100 100 98 100 100 100 100 100 100 100 100 100 100 100 100 100 100 99 93 97 99 100 100 100 97 92 100 100 100 100 100 100 100 100 100 100
100 100 100 100 99 100 100 100 100 100 100 100 100 100 100 100 99 97 97 96 93 89 92 97 98 97 99 100 100 100 100 91 93 100 100 100 100 100 100 100 100 100 99
100 100 100 100 100 100 100 99 97 98 99 100 100 98 90 84 84 82 78 78 76 70 76 75 79 83 99 100 100 100 100 100 100 100 100 100 100 97 99 100 78 90 92
100 100 100 100 100 100 100 96 93 94 93 88 86 87 84 71 64 66 67 64 59 60 52 60 72 78 88 99 100 100 100 100 100 100 100 100 98 97 100 100 93 100 79
100 100 100 100 100 99 97 90 86 81 74 72 70 71 68 58 52 45 40 41 41 44 55 60 71 81 88 98 97 100 100 100 100 98 96 94 100 98 100 100 100 100 100
93 94 95 93 88 81 74 69 69 66 70 75 69 60 56 50 45 38 37 35 30 31 38 48 62 76 89 100 99 92 91 95 85 79 82 91 98 99 99 88 75 66 78
80 83 84 81 77 71 65 68 66 61 55 51 47 48 44 34 28 26 24 21 18 20 24 30 37 45 51 61 70 77 83 83 81 84 100 99 98 100 83 86 90 95 94
65 63 58 56 61 71 63 62 59 56 66 51 41 36 37 34 28 20 16 14 12 15 19 23 32 50 65 84 100 100 98 94 94 98 92 97 89 99 100 77 72 76 97
78 80 83 82 77 88 92 76 69 54 46 44 37 37 30 26 18 11 8 8 8 8 11 15 21 46 62 88 99 100 100 100 97 89 79 85 76 77 81 84 93 90 81
81 86 88 98 100 92 80 61 54 49 45 63 51 61 55 46 37 32 21 12 11 12 14 18 28 47 63 87 100 100 100 89 74 100 78 71 79 82 81 82 83 84 79
99 100 93 92 81 61 60 68 54 52 58 68 73 74 64 58 65 53 48 36 27 23 24 29 34 48 65 100 100 100 81 67 63 68 71 86 88 91 91 96 99 100 100
88 88 72 64 63 65 65 69 58 69 63 70 75 77 75 64 67 63 61 60 54 53 56 55 59 67 86 70 59 71 75 83 89 93 97 100 95 90 92 100 100 100 100
68 60 62 61 67 66 70 78 66 68 58 65 64 71 71 82 88 81 70 68 70 71 69 72 75 75 78 81 84 90 90 92 91 86 95 100 100 100 100 100 100 96 86
56 68 64 64 62 65 75 72 70 73 68 60 64 65 65 63 66 74 87 87 84 80 76 72 75 78 78 80 87 91 97 99 100 100 100 100 100 100 98 93 85 78 67
73 73 85 77 67 81 86 74 70 64 72 68 67 65 71 73 78 85 95 100 99 98 100 100 100 100 100 100 100 100 100 100 100 96 90 95 96 98 90 80 69 64 60
70 74 69 80 75 85 93 74 73 66 78 74 78 68 76 89 97 100 98 90 88 83 81 89 97 100 99 92 85 82 84 88 90 90 88 92 87 77 74 68 60 52 48
68 65 65 71 81 87 87 76 77 72 75 78 81 85 89 95 90 96 100 100 100 99 99 98 90 87 87 87 86 81 80 82 79 78 78 78 76 67 64 56 48 40 31
58 57 54 63 69 76 78 69 74 74 72 73 74 88 92 87 98 98 98 96 92 95 94 90 89 86 80 78 83 85 84 85 86 81 78 71 63 56 47 40 29 18 12
Wind_Speed
87 85 84 84 82 78 78 80 77 77 77 77 77 77 77 76 74 74 75 77 74 74 74 73 71 74 74 74 74 74 72 69 68 68 69 69 69 66 65 63 62 59 58
83 80 79 78 76 76 76 77 77 76 76 76 76 75 74 74 74 74 75 74 73 74 74 74 74 75 74 75 75 72 71 72 72 72 70 72 69 69 68 68 68 66 66
79 81 79 78 78 76 75 75 77 77 76 75 75 73 72 71 71 74 76 77 76 76 75 75 76 77 77 76 72 73 74 74 76 74 74 74 69 67 67 70 73 74 74
81 78 77 78 76 76 75 77 76 76 74 72 70 69 70 70 74 77 77 77 78 80 79 78 80 81 80 77 77 78 77 77 76 76 75 74 72 77 75 75 75 75 73
75 74 75 76 77 77 77 75 74 73 71 69 69 71 73 74 77 77 79 80 83 83 82 78 80 81 80 75 81 76 79 76 76 76 77 77 79 80 78 78 76 76 75
71 71 71 73 74 75 75 73 72 70 70 71 71 73 74 74 77 82 85 87 88 87 87 82 80 79 78 86 83 80 80 81 80 76 77 77 77 76 80 80 82 82 81
70 69 69 68 71 71 70 71 71 71 72 73 74 74 75 78 82 86 88 89 89 90 90 88 87 85 82 81 84 79 81 83 80 83 78 79 76 80 82 83 82 85 84
70 70 68 69 69 70 71 71 71 72 73 76 76 78 80 83 84 86 89 90 91 91 91 93 90 91 89 89 89 83 86 85 85 82 81 80 81 82 82 82 86 90 90
70 70 70 70 70 70 72 74 77 78 79 80 81 82 83 85 89 92 94 95 96 95 94 96 97 95 95 94 92 90 89 87 84 83 82 83 84 84 84 87 81 89 92
73 72 72 72 72 72 74 73 74 76 78 81 83 86 89 93 95 98 100 101 101 102 102 103 103 100 99 96 93 93 90 89 84 82 84 86 88 88 90 89 89 92 91
67 68 68 67 68 72 76 78 79 81 85 87 90 94 98 101 103 105 107 108 110 111 110 111 109 105 97 96 95 92 93 89 86 87 88 90 91 86 83 77 78 73 73
73 72 72 73 76 79 82 84 86 88 90 94 97 100 104 108 111 114 115 118 119 115 111 106 102 99 97 95 92 96 91 89 90 90 92 89 83 73 62 73 72 83 87
81 81 81 83 85 87 90 91 93 97 100 102 106 109 113 117 117 114 111 110 109 107 104 104 102 100 98 96 92 90 91 90 88 84 80 77 76 71 73 81 86 92 96
87 86 87 88 91 93 94 96 93 93 91 93 97 100 102 104 106 103 103 103 102 100 98 98 98 96 94 93 93 89 83 81 80 75 74 72 73 73 71 74 82 82 83
82 82 82 81 79 80 77 76 78 80 82 80 82 83 85 87 86 86 88 89 89 90 91 92 92 91 89 86 83 79 76 70 66 61 61 61 57 59 67 68 72 74 75
58 60 63 61 56 57 59 58 61 61 64 66 66 70 70 67 60 60 71 69 70 74 79 79 77 74 73 71 68 68 60 57 53 54 55 55 58 67 72 73 69 60 61
47 48 47 48 45 45 49 55 55 53 47 46 38 35 37 38 53 45 46 42 48 51 51 57 58 57 55 50 53 52 50 47 47 51 54 55 56 59 57 55 59 64 65
40 38 38 38 43 47 48 49 43 35 31 30 28 33 31 35 34 31 24 25 28 26 25 27 31 40 43 39 32 32 36 41 47 47 49 47 46 50 51 55 60 65 69
32 36 38 39 41 40 38 38 31 27 25 20 19 29 28 26 32 34 28 22 17 12 8 13 19 25 29 25 28 33 36 38 37 36 37 42 48 52 56 61 67 73 79
31 31 33 35 31 31 34 37 28 26 23 19 17 16 25 24 27 27 30 31 26 25 22 11 2 5 11 15 17 20 24 28 34 39 44 50 54 59 65 70 76 81 84
28 29 30 29 30 29 27 28 30 24 22 19 14 14 12 16 19 23 26 26 23 21 19 15 11 6 7 14 20 25 30 35 40 45 51 58 64 69 72 75 78 82 85
26 27 28 28 25 23 24 22 17 15 22 21 20 14 13 13 13 16 18 20 21 20 18 16 15 16 18 22 27 32 38 44 48 52 57 61 65 70 74 77 80 82 85
19 21 23 24 23 21 21 22 18 17 20 23 20 16 15 16 17 19 19 20 20 20 21 20 22 25 28 31 34 38 43 47 52 57 61 65 67 71 74 77 81 86 90
23 24 26 25 21 19 20 20 19 17 17 20 20 19 18 18 20 22 23 24 25 25 25 24 24 26 29 33 37 42 46 51 55 57 60 64 68 73 78 84 88 92 96
25 23 26 26 24 20 18 16 15 14 17 18 17 19 20 21 23 25 27 29 29 28 26 28 30 33 36 39 43 46 48 52 55 60 65 70 75 79 84 89 93 97 96
25 24 25 24 22 20 18 17 16 18 19 19 21 22 24 26 27 30 31 31 30 30 31 34 37 40 42 45 49 52 56 59 62 66 71 76 81 87 91 94 92 85 80
Wind_Direction
244 247 251 253 255 259 262 265 268 268 269 269 270 272 273 273 273 275 277 278 278 280 284 288 288 289 293 296 298 300 301 294 290 288 289 290 291 292 293 292 293 293 294
246 250 253 254 257 259 261 263 264 264 266 268 269 270 273 272 274 275 275 275 278 281 284 285 288 291 293 295 298 297 294 289 290 288 289 291 292 293 293 292 293 291 294
246 249 251 253 255 256 258 260 262 264 264 267 270 272 272 273 273 274 276 278 281 282 284 285 289 291 292 294 294 292 293 288 288 287 290 291 292 294 297 297 295 294 294
246 248 250 251 253 253 255 258 260 261 265 266 267 270 272 271 273 275 278 281 282 283 285 287 290 291 291 291 293 292 293 291 288 287 290 290 290 294 296 297 295 294 295
243 244 246 249 251 252 254 256 261 262 263 266 269 271 271 272 274 277 279 280 281 283 285 285 287 287 287 287 292 287 292 288 287 287 288 290 290 292 295 297 295 296 297
243 245 246 248 251 252 253 255 258 263 267 268 269 269 270 271 272 274 276 278 281 282 284 284 285 286 286 289 290 286 289 287 287 288 287 288 291 291 294 295 294 292 294
245 245 245 247 249 251 255 257 260 262 264 267 268 270 268 269 272 274 276 277 279 281 282 283 285 287 287 285 290 286 289 289 288 290 288 288 287 289 290 291 291 291 291
243 245 246 249 251 253 256 259 262 264 263 263 264 265 266 268 269 270 273 276 279 280 282 284 286 286 285 286 287 285 288 288 288 288 287 286 286 288 289 289 290 288 289
242 245 247 249 251 254 256 257 260 261 263 265 266 267 266 266 267 269 272 273 276 278 280 282 284 285 284 284 284 283 284 285 287 286 285 284 286 286 288 289 287 281 287
243 245 247 249 252 253 254 255 257 260 261 262 263 264 264 266 268 269 271 273 274 276 278 279 280 282 282 280 279 281 281 284 283 282 283 285 285 286 287 287 284 282 284
241 243 247 249 251 252 254 255 257 260 263 263 264 266 267 269 271 272 274 275 276 276 277 277 278 278 276 276 277 278 281 281 281 282 282 282 283 284 286 288 286 282 284
242 245 248 250 252 255 257 259 262 265 267 268 270 270 271 272 273 275 276 274 276 276 276 275 273 273 273 272 275 277 278 279 279 279 280 281 281 280 275 283 278 276 285
244 247 250 253 256 260 262 265 268 270 271 271 272 273 274 276 277 277 277 276 274 273 272 271 269 269 270 273 274 275 277 279 279 279 279 279 279 278 272 272 273 274 281
249 253 256 259 261 265 267 267 269 270 272 273 274 276 277 277 277 277 276 276 275 273 270 270 269 270 271 272 274 275 275 275 275 276 276 275 275 275 275 275 276 279 279
251 254 257 260 262 263 267 268 269 270 273 278 277 279 280 281 281 279 276 275 275 273 272 270 268 267 267 269 270 271 271 272 275 274 273 271 269 272 273 278 278 280 279
248 249 251 258 261 266 269 272 273 278 277 282 284 283 277 278 279 280 279 273 269 267 266 265 264 263 262 262 264 268 269 269 271 271 269 269 264 262 268 280 284 287 285
261 264 265 263 266 268 272 274 276 279 285 285 288 309 314 305 269 278 279 276 273 275 269 265 263 256 255 253 253 257 265 266 266 267 268 268 273 273 276 283 286 287 287
255 253 257 262 266 270 270 273 279 283 294 302 314 336 342 348 351 343 321 300 287 282 274 263 255 249 248 246 246 253 256 261 260 265 271 278 282 282 283 287 290 292 294
250 256 262 263 265 266 267 272 280 284 301 309 323 330 335 4 19 15 19 15 6 355 294 255 246 241 237 222 232 251 265 267 275 279 285 288 290 291 290 293 293 293 293
256 257 259 256 257 267 270 270 271 285 296 299 321 326 335 357 13 20 28 40 44 52 48 38 48 191 208 243 263 274 283 287 290 291 292 292 293 295 296 294 292 292 292
255 248 247 248 259 271 275 261 275 282 276 288 301 316 336 355 6 10 20 31 33 29 28 31 31 8 305 294 295 293 292 293 293 294 296 296 294 291 291 290 289 290 292
249 246 251 255 263 269 275 267 272 263 278 287 296 302 323 342 353 5 4 3 4 2 357 352 343 328 314 305 301 300 299 299 297 294 291 290 289 290 291 292 292 292 293
253 257 258 262 266 276 271 265 274 261 278 280 286 301 315 324 338 343 344 342 337 333 329 323 316 312 308 305 301 300 298 296 293 292 293 294 294 293 294 295 297 297 297
256 257 267 267 273 274 277 268 271 266 261 271 281 288 299 312 317 319 318 318 318 316 315 316 314 309 305 302 301 300 300 299 298 297 297 297 299 299 301 299 298 299 300
268 270 271 264 264 273 266 267 266 263 254 265 272 281 292 300 306 307 307 308 308 308 304 302 303 304 304 304 303 304 304 305 304 304 304 304 302 301 299 299 300 302 303
272 273 265 258 258 263 258 263 263 259 260 264 277 288 291 296 298 299 303 306 304 302 303 303 304 306 305 304 304 305 307 308 307 306 305 304 303 302 303 303 304 305 304